EST,Max TemperatureF,Mean TemperatureF,Min TemperatureF,Max Dew PointF,MeanDew PointF,Min DewpointF,Max Humidity, Mean Humidity, Min Humidity, Max Sea Level PressureIn, Mean Sea Level PressureIn, Min Sea Level PressureIn, Max VisibilityMiles, Mean VisibilityMiles, Min VisibilityMiles, Max Wind SpeedMPH, Mean Wind SpeedMPH, Max Gust SpeedMPH,PrecipitationIn, CloudCover, Events, WindDirDegrees
2013-11-1,59,53,46,57,46,40,94,81,71,29.70,29.51,29.26,10,10,8,28,18,38,0.01,7,Rain,247
2013-11-2,48,45,42,45,43,39,100,90,76,30.07,29.81,29.68,10,7,2,15,10,20,0.16,8,Rain,278
2013-11-3,50,42,37,38,34,32,89,75,54,30.40,30.28,30.07,10,10,10,12,8,,0.00,5,,56
2013-11-4,50,42,33,38,32,25,89,69,41,30.45,30.38,30.32,10,10,10,14,9,,0.00,0,,133
2013-11-5,60,52,43,47,43,38,86,73,62,30.38,30.31,30.19,10,10,10,12,9,,0.00,2,,168
2013-11-6,60,52,44,55,47,39,94,80,60,30.17,29.99,29.89,10,9,3,24,14,32,0.18,7,Rain,222
2013-11-7,46,42,39,41,34,28,89,73,48,30.18,30.11,30.01,10,10,9,21,12,30,0.02,6,Rain,284
2013-11-8,45,38,32,34,30,26,93,77,49,30.32,30.25,30.17,10,8,4,12,8,,0.00,4,,245
2013-11-9,57,46,35,39,34,29,82,59,47,30.19,30.00,29.89,10,10,10,25,15,37,0.00,2,,213
2013-11-10,48,39,30,37,31,27,85,69,50,30.31,30.18,29.98,10,10,10,20,14,24,0.00,4,,261
2013-11-11,50,39,28,39,32,26,93,81,52,30.30,30.17,30.04,10,7,1,21,11,29,0.15,8,Rain-Snow,293
2013-11-12,33,27,21,23,20,17,82,73,61,30.57,30.50,30.32,10,10,10,14,10,20,0.00,2,,317
2013-11-13,36,28,21,22,19,17,88,69,48,30.58,30.48,30.29,10,10,10,20,9,26,0.00,0,,231
2013-11-14,50,40,30,26,22,20,69,53,35,30.27,30.17,30.07,10,10,10,22,16,28,0.00,0,,208
2013-11-15,48,42,37,34,27,21,73,54,42,30.11,30.08,30.06,10,10,10,17,12,21,0.00,0,,203
2013-11-16,57,47,37,52,45,34,93,83,74,30.11,30.00,29.84,10,10,10,23,12,29,0.00,6,,163
2013-11-17,66,57,48,61,54,40,94,84,68,29.84,29.60,29.39,10,8,1,41,23,62,1.02,6,Rain-Thunderstorm,199
2013-11-18,46,41,36,39,33,25,82,71,60,30.16,29.90,29.65,10,10,10,28,20,37,0.00,6,,272
2013-11-19,41,36,30,25,24,23,79,63,51,30.39,30.31,30.17,10,10,10,13,8,,0.00,4,,22
2013-11-20,45,36,28,30,26,23,81,68,53,30.40,30.32,30.24,10,10,10,15,8,16,0.00,0,,117
2013-11-21,46,42,39,46,39,30,97,84,60,30.31,30.24,30.18,10,8,2,16,9,,0.23,8,Rain,153
2013-11-22,50,40,28,48,42,26,100,92,76,30.37,30.21,30.14,10,5,1,22,8,30,0.07,7,Rain,286
2013-11-23,33,26,18,25,19,8,92,73,53,30.55,30.37,30.30,10,9,1,22,11,32,0.00,3,Snow,307
2013-11-24,25,20,14,15,11,6,84,68,50,30.64,30.57,30.49,10,10,9,17,10,22,0.00,3,,280
2013-11-25,33,26,18,18,15,13,81,61,45,30.48,30.29,30.15,10,10,10,18,11,26,0.00,4,,205
2013-11-26,33,32,30,28,25,19,87,77,56,30.15,30.03,29.91,10,7,2,17,7,23,0.00,8,Snow,247
2013-11-27,30,24,19,25,15,10,80,65,43,30.23,30.01,29.88,10,10,10,20,14,28,0.00,6,Snow,314
2013-11-28,28,24,19,20,17,14,88,70,54,30.41,30.32,30.24,10,10,10,14,6,,0.00,7,,213
2013-11-29,36,26,17,20,18,13,88,70,48,30.64,30.57,30.43,10,10,10,8,2,,0.00,0,,95
2013-11-30,46,36,26,27,23,19,78,67,44,30.53,30.32,30.14,10,10,8,13,9,,0.00,0,,167